WESTFORD NEEDLES, 2796

Orbit data source: Space-Track

WESTFORD NEEDLES, 2796 is space debris in LEO originally from a launch on Thu, 09 May 1963 UTC launched from the Air Force Western Test Range (AFWTR). Debris objects in space refer to the collection of defunct objects orbiting the Earth. Examples of debris include non-operational satellites, rocket bodies, and fragments generated from explosions, collisions, or faulty payload assembly.

Loading next visibility...
Identifier
2796, 1963-014AQ
Orbit
LEO
Country
Flag of USUS
Related business
Manufacturer
Unknown
Mission
Spacecraft
Bus & Motor
Unknown
Mass
Unknown
Launch date (UTC)
1963-05-09 (63 years ago)
Launch vehicle
Unknown
Launch site
Air Force Western Test Range (AFWTR)
Object type
Payload
Rocket body
Debris
Shape & HBR
Unknown shape, 0.3 m
Radar Cross Section
Medium (>0.1 m² and <1 m²)

Expand to show TLE details & history
Last TLE update: 6 days ago

TLE from 6 days ago
0 WESTFORD NEEDLES
1 02796U 63014AQ  26122.31845809  .00000006  00000-0  14629-2 0  9999
2 02796  87.1924  91.2326 0560855 215.4560 140.7767  8.68322326921073
Epoch: 2026-05-02T07:38Z
TLE epoch observation values (Epoch: 2026-05-02T07:38:34.778Z)
Latitude
-0.00004°
Longitude
116.34961°
Altitude
4,069.127 km
Speed
6.038 km/s
True Right ascension
06h 04m 55s
True Declination
0° 00' 00"
Sunlit
Object was in daylight at epoch
Visualization orbit readout
Latitude
Unknown
Longitude
Unknown
Altitude
Unknown
Speed
Unknown
Apparent Right ascension
Unknown
Apparent Declination
Unknown
Sunlit
N/A
Visualization observer readout
Local Sidereal Time
15:29:26
Azimuth
Unknown
Elevation
Unknown
Doppler factor
Unknown
Orbital elements
Apogee altitude
4,179.137 km
Perigee altitude
3,057.807 km
Semi-major axis
9,996.609 km
Eccentricity
0.05609
Inclination
87.1924°
RAAN
91.2326°
Arg. of periapsis
215.456°
True anomaly
144.6281°
Mean anomaly
140.7767°
Eccentric anomaly
142.72299°
Mean motion
2.17152 °/min
Orbital period
165.78 mins
BSTAR
0.0014629
Loading maneuver chart data...
Computing Atmospheric mass density...

Documentation

Showing up to 5 results
|